Location: Mainz-Finthen
(49.9906°N, 8.1713°E)
Time: 08:11:40
(UTC+00:00)

Envisat - Pass Details

Date: 01 October 2021
Orbit: 764 x 766 km, 98.2° (Epoch: 22 October)

Event Time Altitude Azimuth Distance (km) Brightness Sun altitude
Rises 03:32:49 0° 25° (NNE) 3,243 6.9 -19.0°
Reaches altitude 10° 03:35:41 10° 41° (NE) 2,311 6.3 -18.5°
Maximum altitude 03:39:32 21° 90° (E) 1,658 5.6 -18.0°
Drops below altitude 10° 03:43:21 10° 140° (SE) 2,297 5.8 -17.4°
Sets 03:46:10 0° 156° (SSE) 3,218 6.3 -16.9°
